Dewpoint
46 46 47 50 52 51 50 51 53 54 55 55 55 55 54 53 52 52 52 51 49 47
46 46 47 48 52 52 52 52 53 54 54 54 54 54 53 53 52 52 52 50 49 48
45 46 47 49 50 52 52 53 52 53 53 53 53 52 52 52 52 52 51 50 49 48
44 45 46 49 50 52 52 52 52 52 52 52 52 52 51 51 51 50 50 49 48 46
42 44 46 50 52 52 52 51 51 51 51 51 51 51 50 50 49 49 47 47 46 44
42 43 44 47 52 51 51 50 51 51 51 51 50 49 49 49 48 48 47 46 45 42
41 42 43 45 51 51 50 50 50 50 50 50 49 49 48 48 47 46 45 44 43 41
40 43 45 47 49 49 50 49 49 48 48 48 48 47 46 45 43 40 38 37 37 38
39 42 42 43 43 44 43 43 44 45 45 44 44 45 45 42 39 37 36 36 37 38
39 40 41 41 41 41 40 41 40 41 41 40 42 45 44 41 37 36 36 36 36 35
39 39 40 40 40 39 39 39 39 39 40 41 42 43 41 39 36 36 36 35 34 34
38 39 40 39 39 39 39 39 39 40 40 40 40 40 40 37 35 34 34 35 35 34
38 39 39 39 38 39 39 39 39 39 39 39 38 39 38 35 34 32 32 35 36 38
37 38 39 39 39 39 38 37 37 36 37 37 37 37 38 37 34 34 34 33 34 35
Lifted_Index
4 4 4 4 3 3 3 3 3 4 4 4 4 4 4 3 3 4 4 4 4 4
4 4 4 4 3 3 3 3 3 4 4 4 4 4 4 3 3 3 4 3 3 3
4 4 4 4 4 3 3 3 3 4 4 4 4 4 4 4 3 4 4 3 3 3
4 3 3 3 3 3 3 4 4 4 4 4 4 4 4 4 4 4 3 3 3 2
4 3 3 3 3 3 3 4 4 4 4 4 4 4 4 4 3 3 3 3 2 2
4 4 3 3 3 3 4 4 4 4 4 4 3 3 3 3 3 3 2 2 2 2
4 4 3 3 3 3 4 4 4 4 4 3 3 3 3 3 3 2 2 2 2 2
4 4 3 3 3 3 4 4 4 4 4 4 3 3 3 3 2 2 2 2 2 2
5 4 3 3 3 4 4 4 4 4 4 4 4 3 3 3 2 2 2 2 2 2
5 5 4 4 4 4 4 5 5 5 5 4 4 3 3 2 2 2 2 2 2 2
6 5 5 5 5 5 5 5 5 6 5 5 4 3 3 3 3 3 3 3 3 3
6 6 5 5 5 6 6 6 6 6 6 5 5 4 4 4 4 4 4 5 5 5
7 6 6 6 6 7 7 7 7 7 7 6 6 5 5 5 5 5 5 6 7 8
7 7 6 6 7 7 7 7 7 7 8 7 7 6 6 6 6 6 6 7 8 9